Time,B instrument,Bx,By,Bz,sigma B,Ion instrument,Status,Tp_par,Tp_perp,carrot,r_sun,clat,clong,earth_he_angle,n_p,vp_x,vp_y,vp_z,vth_p_par,vth_p_perp
1975-08-13 00:00:57,1,5.12,-1.38,3.1,0.164924,1,1,65736.5,135232.0,1630,0.72787982,-5.4912815,13.800995,165.63107,3.34241,513.918,-19.6077,-25.9869,32.9429,47.2495
1975-08-13 00:02:18,1,5.16667,-1.56667,3.01111,0.255797,1,1,87009.6,137160.0,1630,0.72786647,-5.4914265,13.789703,165.6315,3.51685,514.395,-15.0557,-20.942,37.9002,47.5852
1975-08-13 00:03:39,1,5.52222,-1.55556,2.78889,0.363114,1,1,67889.5,125084.0,1630,0.7278598,-5.4914989,13.778229,165.63173,3.28728,513.381,-17.0416,-21.4737,33.478,45.4421
1975-08-13 00:05:00,1,5.1,-2.22,2.7,0.328024,1,1,81980.6,145657.0,1630,0.72784638,-5.4916449,13.764984,165.63217,3.40502,516.529,-7.87199,-23.0842,36.7886,49.0369
1975-08-13 00:06:21,1,5.2,-2.6,2.88,0.16,1,1,52677.2,118640.0,1630,0.72783971,-5.4917173,13.753479,165.63239,2.94321,515.239,-12.805,-20.2793,29.4896,44.2561
1975-08-13 00:07:42,1,5.42222,-2.37778,2.6,0.354512,1,1,63701.2,146883.0,1630,0.72783303,-5.4917898,13.742004,165.63261,3.15495,513.617,-13.0432,-19.8568,32.4289,49.2429
1975-08-13 00:09:03,1,5.59,-2.32,2.26,0.22561,1,1,55391.0,121272.0,1630,0.72781962,-5.4919357,13.72876,165.63304,3.23002,512.174,-16.5419,-19.1037,30.2397,44.7444
1975-08-13 00:10:24,1,5.66667,-2.21111,1.85556,0.360726,1,1,75267.9,130097.0,1630,0.72781295,-5.4920082,13.717255,165.63327,3.35409,516.381,-11.2883,-12.725,35.2503,46.3437
1975-08-13 00:11:45,1,5.71,-2.36,2.14,0.25632,1,1,54244.0,130109.0,1630,0.72780621,-5.4920807,13.70575,165.63348,2.86775,514.675,-11.449,-18.4116,29.925,46.3459
1975-08-13 00:13:06,1,5.81111,-2.32222,1.72222,0.262467,1,1,74877.1,115071.0,1630,0.72779286,-5.4922266,13.692535,165.63393,3.38814,519.003,-10.5785,-11.6809,35.1587,43.5854
1975-08-13 00:14:27,1,5.78889,-2.28889,1.67778,0.300617,1,1,56492.6,124844.0,1630,0.72778618,-5.4922991,13.68103,165.63416,3.1574,514.705,-14.8638,-13.0945,30.5389,45.3986
1975-08-13 00:15:48,1,5.84,-1.91,1.14,0.31257,1,1,71780.8,136636.0,1630,0.72777945,-5.4923716,13.669525,165.63437,3.34934,518.438,-14.4837,-12.9364,34.4241,47.4942
1975-08-13 00:17:09,1,5.58,-1.77,0.58,0.336601,1,1,55505.5,107888.0,1630,0.7277661,-5.4925165,13.656311,165.63481,3.14094,512.993,-14.9019,-5.07874,30.271,42.2032
1975-08-13 00:18:30,1,5.5,-1.94,0.18,0.319374,1,1,73504.1,116891.0,1630,0.72775936,-5.49259,13.644806,165.63503,3.45384,517.182,-13.6603,-2.28759,34.8348,43.9287
1975-08-13 00:19:51,1,5.55,-1.78,0.02,0.30282,1,1,66291.4,115040.0,1630,0.72775269,-5.4926624,13.633301,165.63525,3.04612,515.355,-13.2605,-3.60668,33.0816,43.5795
1975-08-13 00:21:12,1,5.52222,-1.64444,0.0777778,0.243432,1,1,66894.9,113207.0,1630,0.72773933,-5.4928074,13.620087,165.6357,3.40436,516.727,-14.9341,-4.96629,33.2318,43.2309
1975-08-13 00:23:54,1,5.46667,-1.62222,-0.1,0.113312,1,1,61363.2,118265.0,1630,0.72772592,-5.4929533,13.595123,165.63612,3.37054,517.382,-14.5033,-3.09976,31.8282,44.1861
1975-08-13 00:25:15,1,5.24444,-1.6,-0.1,0.275322,1,1,65639.2,113866.0,1630,0.72771251,-5.4930983,13.583832,165.63657,3.03577,515.738,-23.5018,-0.516201,32.9185,43.3566
1975-08-13 00:26:36,1,4.95,-1.62,-0.62,0.56542,1,1,60623.4,107036.0,1630,0.72770584,-5.4931717,13.572357,165.6368,3.21892,517.758,-15.8663,2.98533,31.6357,42.0361
1975-08-13 00:27:57,1,5.08,-1.68,-0.73,0.455302,1,1,58125.9,114296.0,1630,0.72769916,-5.4932442,13.558899,165.63701,3.02032,514.655,-26.0483,1.49165,30.9772,43.4384
1975-08-13 00:29:18,1,4.92,-1.44,-1.02,0.256125,1,1,56179.0,118812.0,1630,0.72768575,-5.4933891,13.547607,165.63745,3.1485,517.139,-17.2342,3.56544,30.454,44.2881
1975-08-13 00:30:39,1,5.25,-0.74,-0.98,0.297489,1,1,68220.8,102759.0,1630,0.72767907,-5.4934626,13.536133,165.63768,3.15276,516.057,-30.4495,3.05071,33.5596,41.1876
1975-08-13 00:32:00,1,5.11111,-0.522222,-1.07778,0.294392,1,1,71923.0,118085.0,1630,0.72766566,-5.4936075,13.522888,165.63811,3.42509,517.344,-22.8161,5.51656,34.4581,44.1524
1975-08-13 00:33:21,1,4.8,-1.42,-1.26,0.282843,1,1,68792.1,108401.0,1630,0.72765899,-5.49368,13.511383,165.63834,3.13304,520.932,-11.0965,2.23231,33.6998,42.3033
1975-08-13 00:34:42,1,5.0,-1.4,-1.16667,0.188562,1,1,65943.9,118011.0,1630,0.72765231,-5.4937525,13.499878,165.63855,3.38272,518.392,-12.4751,3.9343,32.9948,44.1387
1975-08-13 00:36:03,1,4.4,-2.03333,-1.3,0.266667,1,1,62176.1,124703.0,1630,0.7276389,-5.4938984,13.486664,165.63899,3.27761,519.775,-12.7505,2.08782,32.0383,45.3729
1975-08-13 00:37:24,1,4.64,-0.54,-1.82,0.729657,1,1,76599.1,109368.0,1630,0.72763222,-5.4939709,13.475159,165.63922,3.37468,520.343,-11.369,4.42341,35.5607,42.4917
1975-08-13 00:38:45,1,4.65,-0.18,-1.78,0.392046,1,1,60745.8,112991.0,1630,0.72762555,-5.4940434,13.463654,165.63943,3.13153,518.068,-29.3508,5.40196,31.6677,43.1896
1975-08-13 00:40:06,1,4.77778,-0.444444,-1.47778,0.3849,1,1,69581.3,109784.0,1630,0.72761214,-5.4941893,13.450439,165.63988,3.20812,516.105,-21.8505,6.83996,33.8925,42.5724
1975-08-13 00:41:27,1,4.79,-0.67,-1.26,0.373363,1,1,66753.4,121588.0,1630,0.72760546,-5.4942617,13.438934,165.64009,3.31549,513.076,-24.1766,3.51664,33.1967,44.8027
1975-08-13 00:42:48,1,4.89,-0.24,-1.38,0.361801,1,1,61619.6,116558.0,1630,0.72759879,-5.4943342,13.427429,165.64032,3.23536,510.358,-24.7924,3.39954,31.8946,43.8661
1975-08-13 00:44:09,1,4.69,0.51,-1.7,0.256515,1,1,70677.2,97772.4,1630,0.72758538,-5.4944801,13.414215,165.64076,3.01472,514.561,-34.7452,6.58615,34.1584,40.1759
1975-08-13 00:45:30,1,4.11111,1.25556,-2.05556,0.224433,1,1,64073.4,119963.0,1630,0.7275787,-5.4945526,13.40271,165.64098,2.96324,518.634,-38.1267,11.7081,32.5235,44.5021
1975-08-13 00:46:51,1,4.0,1.54444,-2.03333,0.389048,1,1,66002.2,95083.4,1630,0.72757196,-5.4946251,13.391205,165.64119,2.94384,517.921,-38.5552,9.22754,33.0094,39.6196
1975-08-13 00:48:12,1,3.36,1.97,-2.35,0.361939,1,1,78631.2,105362.0,1630,0.72755861,-5.494771,13.37796,165.64163,3.1893,527.176,-48.5731,11.7865,36.0292,41.7061
1975-08-13 00:49:33,1,2.99,2.17,-2.61,0.354824,1,1,85070.0,108390.0,1630,0.72755194,-5.4948435,13.366486,165.64186,2.98104,527.543,-39.8802,15.4036,37.4754,42.3012
1975-08-13 00:50:54,1,3.06,2.5,-2.21,0.330606,1,1,85787.5,109849.0,1630,0.7275452,-5.494916,13.353027,165.64207,3.16566,520.769,-46.6539,9.85332,37.6331,42.5849
1975-08-13 00:52:15,1,3.04,2.74,-2.16,0.234947,1,1,93896.1,99392.8,1630,0.72753185,-5.4950619,13.341736,165.64252,3.06905,528.391,-49.401,12.3276,39.3715,40.5075
1975-08-13 00:53:36,1,2.21,1.82,-2.54,0.516624,1,1,113627.0,114087.0,1630,0.72752512,-5.4951344,13.330231,165.64273,2.99237,533.27,-39.7116,9.69291,43.3111,43.3986
1975-08-13 00:54:57,1,2.86,1.96,-2.42,0.349857,1,1,90611.5,97818.0,1630,0.72751844,-5.4952068,13.316803,165.64296,3.03496,525.128,-39.7081,10.9732,38.6767,40.1853
1975-08-13 00:56:18,1,1.26667,3.38889,-2.1,0.272619,1,1,96346.4,98632.0,1630,0.72750509,-5.4953527,13.305511,165.6434,2.74389,536.31,-54.2755,9.20597,39.8819,40.3522
1975-08-13 00:57:39,1,3.37778,-1.88889,0.333333,1.61398,1,1,70241.3,127713.0,1630,0.72749835,-5.4954252,13.294006,165.64362,2.5131,518.139,9.41339,-22.3714,34.0529,45.9172
1975-08-13 00:59:00,1,1.86667,-4.22222,0.988889,0.406126,1,1,139093.0,125031.0,1630,0.727485,-5.4955702,13.280792,165.64406,2.97386,529.716,9.55415,-5.48318,47.9192,45.4326
1975-08-13 01:00:21,1,2.79,-3.24,-0.27,0.566922,1,1,94545.4,122983.0,1630,0.72747833,-5.4956436,13.269287,165.64429,2.84151,516.418,8.30196,8.21634,39.5074,45.0589
1975-08-13 01:01:42,1,1.83333,-0.655556,-2.48889,0.223883,1,1,114500.0,150654.0,1630,0.72747159,-5.4957161,13.257782,165.6445,2.94488,525.36,-19.4378,24.7106,43.4771,49.871
1975-08-13 01:03:03,1,4.1,-2.87,1.8,1.64806,1,1,150057.0,147439.0,1630,0.72745824,-5.4958611,13.244568,165.64494,3.37442,506.071,4.96394,-15.7824,49.7721,49.336
1975-08-13 01:04:24,1,3.69,-4.06,3.52,0.202237,1,1,95687.3,73974.9,1630,0.7274515,-5.4959335,13.233063,165.64517,2.31602,503.679,6.38591,-18.7448,39.7452,34.9462
1975-08-13 01:05:45,1,3.52222,-4.16667,3.83333,0.335916,1,1,158326.0,126968.0,1630,0.72744483,-5.496007,13.221558,165.64539,3.13426,511.947,15.165,-18.6701,51.1251,45.7831
1975-08-13 01:07:06,1,3.74444,-4.08889,3.2,0.351364,1,1,100736.0,91560.8,1630,0.72743142,-5.4961519,13.208344,165.64583,2.61303,502.661,8.09611,-17.1935,40.7802,38.8788
1975-08-13 01:08:27,1,4.32222,-3.48889,2.97778,0.262467,1,1,101347.0,125217.0,1630,0.72742474,-5.4962244,13.196838,165.64606,2.57424,497.346,10.5359,-19.5054,40.9039,45.4663
1975-08-13 01:09:48,1,4.31,-3.58,2.8,0.300832,1,1,85243.0,75248.8,1630,0.72741801,-5.4962978,13.185333,165.64627,2.31109,499.173,9.42527,-18.8019,37.5135,35.2458
1975-08-13 01:11:09,1,4.36,-3.51,2.8,0.278029,1,1,99360.7,126333.0,1630,0.72740465,-5.4964428,13.172119,165.64671,2.72214,495.172,11.2967,-14.0978,40.5009,45.6684
1975-08-13 01:12:30,1,4.3,-3.4,3.24444,0.294811,1,1,101542.0,73031.5,1630,0.72739792,-5.4965153,13.160614,165.64694,2.41652,498.548,4.96958,-24.293,40.9432,34.7227
1975-08-13 01:13:51,1,4.3,-3.45556,3.55556,0.25483,1,1,75253.8,131095.0,1630,0.72739124,-5.4965887,13.149109,165.64716,2.61932,496.672,11.8054,-27.4103,35.247,46.5212
1975-08-13 01:15:12,1,4.28889,-2.38889,4.34444,0.795822,1,1,111130.0,58554.9,1630,0.72737783,-5.4967337,13.135895,165.6476,2.59442,501.094,-2.10898,-29.3394,42.8325,31.0913
1975-08-13 01:16:33,1,3.38889,-3.06667,4.58889,0.533102,1,1,104562.0,128218.0,1630,0.72737116,-5.4968061,13.12439,165.64783,2.64368,505.233,11.4947,-39.0488,41.5475,46.008
1975-08-13 01:17:54,1,4.52222,-2.5,4.35556,0.315837,1,1,94769.9,102897.0,1630,0.72736448,-5.4968796,13.110931,165.64804,2.51932,497.027,7.86704,-34.444,39.5543,41.2155
1975-08-13 01:19:15,1,4.52222,-2.38889,4.4,0.222222,1,1,97042.2,127800.0,1630,0.72735107,-5.4970245,13.09967,165.64848,2.70524,493.893,-2.2922,-32.1699,40.0256,45.9328
1975-08-13 01:20:36,1,4.46,-2.38,4.84,0.269072,1,1,114407.0,77199.7,1630,0.72734433,-5.497097,13.088165,165.64871,2.36891,499.55,-1.42514,-29.957,43.4594,35.6998
1975-08-13 01:21:57,1,4.36,-2.06,4.56,0.295296,1,1,117835.0,123568.0,1630,0.72733766,-5.4971695,13.074707,165.64893,3.04948,497.977,-0.388474,-32.5663,44.1058,45.1659
1975-08-13 01:23:18,1,4.25556,-2.47778,4.4,0.376796,1,1,112336.0,75490.2,1630,0.72732425,-5.4973154,13.063446,165.64937,2.52931,501.187,-1.9285,-28.9193,43.0642,35.3023
1975-08-13 01:24:39,1,3.38889,-3.71111,3.83333,0.923627,1,1,104352.0,108506.0,1630,0.72731757,-5.4973879,13.051941,165.6496,2.43208,505.644,15.3536,-29.613,41.5058,42.3238
1975-08-13 01:26:00,1,3.06,-4.37,3.21,0.541664,1,1,111249.0,83187.0,1630,0.72730416,-5.4975338,13.038696,165.65002,2.18718,501.674,8.07383,-23.156,42.8555,37.0583
1975-08-13 01:27:21,1,3.23,-4.24,3.21,0.367967,1,1,83557.3,133683.0,1630,0.72729748,-5.4976063,13.027222,165.65025,2.68012,499.692,14.9283,-21.0494,37.1407,46.9782
1975-08-13 01:28:42,1,3.47778,-3.96667,3.86667,0.373505,1,1,119904.0,82366.8,1630,0.72729081,-5.4976788,13.015717,165.65048,2.33514,504.286,5.67851,-26.7051,44.4912,36.8752
1975-08-13 01:30:03,1,3.58889,-3.71111,3.7,0.367843,1,1,87624.8,129432.0,1630,0.7272774,-5.4978247,13.002502,165.65092,2.58788,499.938,12.5775,-23.9989,38.034,46.2252
1975-08-13 01:31:24,1,3.7,-3.5,3.46,0.639062,1,1,121893.0,79671.3,1630,0.72727072,-5.4978971,12.990997,165.65114,2.1462,499.792,3.21667,-19.7171,44.8588,36.2668
1975-08-13 01:32:45,1,4.05556,-2.86667,4.26667,0.245452,1,1,74983.4,115633.0,1630,0.72726399,-5.4979696,12.979492,165.65137,2.61277,494.141,1.0997,-30.0412,35.1836,43.6917
1975-08-13 01:34:06,1,4.0,-2.65556,4.57778,0.204879,1,1,168307.0,88741.6,1630,0.72725064,-5.4981146,12.966278,165.65181,2.48466,504.279,-5.87171,-26.4462,52.712,38.2756
1975-08-13 01:35:27,1,4.01111,-3.47778,3.51111,0.443889,1,1,66757.8,125081.0,1630,0.7272439,-5.498188,12.954773,165.65202,2.64728,495.705,10.0638,-20.3314,33.1978,45.4416
1975-08-13 01:36:48,1,3.9,-3.41111,2.93333,0.544558,1,1,156349.0,86512.9,1630,0.72723722,-5.4982605,12.943268,165.65225,2.57553,501.054,-0.588987,-10.1628,50.8049,37.7919
1975-08-13 01:38:09,1,3.98889,-2.73333,4.4,0.477131,1,1,103007.0,113618.0,1630,0.72722381,-5.4984055,12.930054,165.65269,2.53055,494.189,1.48892,-24.7912,41.2375,43.3093
1975-08-13 01:39:30,1,4.36667,-2.37778,4.22222,0.491156,1,1,130579.0,71853.6,1630,0.72721714,-5.4984789,12.918549,165.65291,2.40702,497.519,-7.32032,-22.0123,46.4295,34.4415
1975-08-13 01:40:51,1,4.7,-2.68889,3.73333,0.704658,1,1,98160.7,120700.0,1630,0.7272104,-5.4985514,12.907043,165.65314,2.42184,496.266,-3.42845,-32.4091,40.2556,44.6387
1975-08-13 01:42:12,1,4.15556,-2.43333,4.8,0.822072,1,1,117180.0,70055.2,1630,0.72719705,-5.4986963,12.893829,165.65358,2.33411,501.875,-7.25164,-31.7431,43.983,34.0078
1975-08-13 01:43:33,1,4.9,-1.34,3.44,1.03865,1,1,93684.0,111237.0,1630,0.72719032,-5.4987698,12.882324,165.65379,2.48155,490.183,-9.87207,-34.0159,39.327,42.8531
1975-08-13 01:44:54,1,4.97778,-2.21111,1.52222,0.716473,1,1,91821.8,98216.9,1630,0.72718364,-5.4988422,12.868866,165.65402,2.2497,493.751,0.0898634,-9.20076,38.9342,40.2672
1975-08-13 01:46:15,1,5.02222,-2.38889,1.88889,0.472973,1,1,64721.8,114956.0,1630,0.72717023,-5.4989872,12.857605,165.65446,2.47857,480.966,-11.4859,-8.58037,32.6876,43.5636
1975-08-13 01:47:36,1,5.32222,-1.31111,2.34444,0.381032,1,1,161740.0,117686.0,1630,0.72716355,-5.4990606,12.8461,165.65468,2.74345,490.539,-10.3106,-9.00937,51.6734,44.0779
1975-08-13 01:48:57,1,5.12,-0.87,3.78,0.399124,1,1,71079.3,95909.1,1630,0.72715688,-5.4991331,12.832642,165.65491,2.15905,483.467,-21.3583,-24.8964,34.2554,39.7913
1975-08-13 01:50:18,1,4.85556,-0.877778,3.67778,0.315054,1,1,62794.1,128149.0,1630,0.72714347,-5.4992781,12.821381,165.65535,2.15236,484.313,-20.7613,-31.1886,32.1971,45.9955
1975-08-13 01:53:59,1,5.35143,-0.662857,2.69429,0.264467,1,1,59665.7,54104.9,1630,0.72712338,-5.4994965,12.788818,165.65601,2.10518,480.901,-27.9763,-15.5738,31.3849,29.8866
1975-08-13 01:54:19,1,5.40405,-0.662162,2.62162,0.338283,1,1,59568.7,54077.8,1630,0.7271167,-5.4995689,12.785156,165.65623,2.10543,480.905,-27.9774,-15.5833,31.3593,29.8791
1975-08-13 01:54:40,1,5.36389,-0.845833,2.66667,0.407309,1,1,108357.0,127293.0,1630,0.7271167,-5.4995689,12.783203,165.65623,2.66301,482.219,-24.6017,-14.7815,42.2947,45.8417
1975-08-13 01:55:21,1,5.34595,-0.783784,2.48649,0.387487,1,1,51220.8,58297.0,1630,0.72710997,-5.4996414,12.775604,165.65645,2.03349,480.828,-24.3999,-15.0621,29.0791,31.0228
1975-08-13 01:56:01,1,5.38767,-0.536986,2.52192,0.31653,1,1,144928.0,108990.0,1630,0.72710329,-5.4997149,12.769958,165.65668,2.98719,487.912,-23.9897,-9.16513,48.914,42.4182
1975-08-13 01:56:42,1,5.41528,-0.544444,2.51667,0.354553,1,1,72503.6,91214.1,1630,0.72710329,-5.4997149,12.764099,165.65668,2.26432,480.237,-26.2704,-12.144,34.5969,38.8051
1975-08-13 01:57:22,1,5.33611,-0.695833,2.51111,0.262625,1,1,174925.0,124121.0,1630,0.72709662,-5.4997873,12.758453,165.65689,2.89325,485.843,-22.2805,-15.3377,53.7383,45.2669
1975-08-13 01:58:03,1,5.33649,-0.774324,2.55135,0.25409,1,1,62472.2,97079.1,1630,0.72708988,-5.4998598,12.752838,165.65712,2.3544,479.58,-22.8905,-12.3975,32.1145,40.0333
1975-08-13 01:58:43,1,5.32192,-0.819178,2.38767,0.216984,1,1,126535.0,101869.0,1630,0.72708988,-5.4998598,12.745026,165.65712,2.53804,486.022,-21.0364,-15.5577,45.7049,41.009
1975-08-13 01:59:24,1,5.30946,-0.841892,2.26486,0.260254,1,1,67008.9,82645.9,1630,0.72708321,-5.4999323,12.73938,165.65733,2.22486,480.619,-22.7914,-10.9005,33.2602,36.9376
1975-08-13 02:00:04,1,5.25278,-0.954167,2.15,0.268695,1,1,120142.0,113944.0,1630,0.72707653,-5.5000057,12.733734,165.65756,2.77412,484.53,-18.0809,-10.7426,44.5354,43.3715
1975-08-13 02:00:45,1,5.37568,-0.889189,2.15135,0.280261,1,1,69730.9,110261.0,1630,0.72707647,-5.5000057,12.727875,165.65756,2.51534,480.7,-20.3388,-12.5831,33.929,42.6647
1975-08-13 02:01:25,1,5.37808,-0.668493,1.93014,0.275387,1,1,134134.0,113964.0,1630,0.7270698,-5.5000782,12.722229,165.65778,2.84806,486.871,-17.4409,-3.76669,47.0573,43.3752
1975-08-13 02:02:06,1,5.28514,-0.92027,1.15676,0.395154,1,1,58433.5,113924.0,1630,0.72706312,-5.5001507,12.716614,165.658,2.51415,479.524,-21.5006,-7.7822,31.0591,43.3676
1975-08-13 02:02:46,1,5.15278,-0.944444,0.994444,0.310354,1,1,122755.0,107954.0,1630,0.72706312,-5.5001507,12.708801,165.658,2.56932,487.056,-16.1846,7.59914,45.0171,42.216
1975-08-13 02:03:27,1,5.2473,-1.0527,0.956757,0.443124,1,1,55070.3,107176.0,1630,0.72705638,-5.5002232,12.703156,165.65822,2.31043,481.391,-20.9318,4.85925,30.152,42.0637
1975-08-13 02:04:07,1,5.33333,-0.556944,1.11667,0.410564,1,1,133406.0,106232.0,1630,0.72704971,-5.5002956,12.69751,165.65845,2.61233,487.618,-22.2322,7.62991,46.9294,41.8779
1975-08-13 02:04:48,1,5.28429,-0.00571429,1.34,0.290281,1,1,51667.2,97729.0,1630,0.72704971,-5.5002956,12.69165,165.65845,2.43066,480.041,-27.746,2.25372,29.2056,40.167
1975-08-13 02:05:28,1,5.24932,-0.467123,1.56027,0.282318,1,1,129447.0,101623.0,1630,0.72704297,-5.5003691,12.686005,165.65866,2.63756,484.705,-27.1512,2.72665,46.2279,40.9594
1975-08-13 02:06:09,1,5.20972,-0.75,1.34444,0.276912,1,1,59754.0,104168.0,1630,0.7270363,-5.5004416,12.680389,165.65889,2.3401,479.582,-26.3442,-0.418269,31.4081,41.4691
1975-08-13 02:06:49,1,5.19306,-0.725,1.45556,0.30137,1,1,180815.0,110864.0,1630,0.7270363,-5.5004416,12.672577,165.65889,2.85063,486.781,-18.422,0.00297317,54.6355,42.7812
1975-08-13 02:07:30,1,5.23108,-0.681081,1.52973,0.273778,1,1,54644.6,96470.0,1630,0.72702956,-5.500514,12.666931,165.6591,2.43475,479.695,-25.374,-3.11458,30.0353,39.9075
1975-08-13 02:08:10,1,5.27808,-0.542466,1.65616,0.276054,1,1,178677.0,121768.0,1630,0.72702289,-5.5005865,12.661285,165.65933,2.74536,491.199,-23.4368,-0.147589,54.3115,44.8358
1975-08-13 02:08:51,1,5.27162,-0.566216,1.65946,0.267984,1,1,53816.2,102488.0,1630,0.72702289,-5.5005865,12.655426,165.65933,2.47264,477.985,-23.5805,-3.45281,29.8067,41.1334
1975-08-13 02:09:31,1,5.25417,-0.680556,1.62778,0.241407,1,1,148236.0,106436.0,1630,0.72701615,-5.5006599,12.649811,165.65956,2.60353,488.007,-17.6442,0.0924279,49.4692,41.9181
1975-08-13 02:10:12,1,5.24189,-0.731081,1.38919,0.29569,1,1,49192.8,99638.0,1630,0.72700948,-5.5007324,12.642212,165.65977,2.19814,480.413,-21.3847,-1.93922,28.4976,40.5574
1975-08-13 02:10:52,1,5.20822,-0.773973,1.20411,0.327807,1,1,120349.0,112068.0,1630,0.72700948,-5.5007324,12.636353,165.65977,2.49405,487.782,-17.4672,2.78278,44.5738,43.0128
1975-08-13 02:11:33,1,5.18036,-0.648214,0.792857,0.284898,1,1,53692.6,115523.0,1630,0.72700274,-5.5008049,12.630707,165.66,2.34782,479.107,-18.897,-1.43605,29.7725,43.6709
1975-08-13 02:12:13,1,4.99583,-0.805556,0.811111,0.289099,1,1,146433.0,130961.0,1630,0.72699606,-5.5008774,12.625061,165.66022,2.85212,487.394,-20.2083,8.09236,49.1674,46.4974
1975-08-13 02:12:54,1,5.16486,-0.95,1.31351,0.276076,1,1,57070.4,106002.0,1630,0.72699606,-5.5008774,12.619202,165.66022,2.536,480.655,-18.9781,1.5075,30.6947,41.8326
1975-08-13 02:13:34,1,5.18493,-0.889041,1.15753,0.468209,1,1,131471.0,121594.0,1630,0.72698933,-5.5009508,12.613586,165.66045,2.65528,482.764,-17.5118,-0.215978,46.5878,44.8037
1975-08-13 02:14:15,1,5.08649,-0.666216,0.762162,0.263707,1,1,57286.7,119022.0,1630,0.72698265,-5.5010233,12.605988,165.66066,2.75026,481.33,-21.4168,7.40225,30.7528,44.3273
1975-08-13 02:14:55,1,5.02778,-0.691667,0.522222,0.297767,1,1,137975.0,124130.0,1630,0.72698265,-5.5010233,12.600128,165.66066,2.83047,484.444,-23.2646,5.93338,47.7264,45.2684
1975-08-13 02:15:36,1,4.96806,-0.880556,0.422222,0.270641,1,1,64698.7,116945.0,1630,0.72697592,-5.5010958,12.594482,165.66089,2.42022,483.271,-21.1651,9.09701,32.6818,43.9389
1975-08-13 02:16:16,1,4.98767,-0.790411,0.513699,0.576343,1,1,93312.4,119122.0,1630,0.72696924,-5.5011683,12.588867,165.66112,2.62548,486.187,-18.2834,16.4371,39.2489,44.3459
1975-08-13 02:16:57,1,5.10423,-0.352113,1.02394,0.316566,1,1,64266.4,105278.0,1630,0.72696924,-5.5011683,12.583008,165.66112,2.59362,480.734,-24.3689,4.53741,32.5724,41.6896
1975-08-13 02:17:37,1,5.14167,-0.573611,1.01667,0.292377,1,1,214871.0,111681.0,1630,0.72696257,-5.5012417,12.577362,165.66133,3.15153,482.653,-24.267,4.02963,59.5588,42.9386
1975-08-13 02:18:18,1,5.08514,-0.72973,0.864865,0.283723,1,1,61858.2,104073.0,1630,0.72695583,-5.5013142,12.569763,165.66156,2.59772,481.189,-22.5804,1.91541,31.9563,41.4502
1975-08-13 02:18:58,1,5.11918,-0.723288,0.965753,0.319416,1,1,138621.0,122244.0,1630,0.72695583,-5.5013142,12.563904,165.66156,2.83428,483.792,-21.0438,9.74158,47.838,44.9234
1975-08-13 02:19:39,1,5.10278,-0.772222,0.866667,0.431147,1,1,58236.4,118754.0,1630,0.72694916,-5.5013866,12.558258,165.66177,2.58617,479.404,-20.6518,2.16549,31.0067,44.2773
1975-08-13 02:20:19,1,5.34444,-0.723611,0.994444,0.294991,1,1,132234.0,121118.0,1630,0.72694242,-5.5014591,12.552643,165.662,2.70438,478.343,-22.8421,6.8052,46.7229,44.7159
1975-08-13 02:21:00,1,5.33472,-0.715278,1.05556,0.439921,1,1,56025.3,104232.0,1630,0.72693574,-5.5015316,12.546997,165.66222,2.35517,478.999,-18.5328,3.05829,30.4124,41.4818
1975-08-13 02:21:40,1,5.23836,-0.919178,0.820548,0.407883,1,1,140829.0,115874.0,1630,0.72693574,-5.5015316,12.541138,165.66222,2.7698,484.133,-24.6969,10.0379,48.2175,43.7371
1975-08-13 02:22:21,1,5.29324,-0.862162,0.924324,0.309247,1,1,56824.9,96280.8,1630,0.72692901,-5.501605,12.533539,165.66245,2.48512,479.139,-24.4835,6.28892,30.6286,39.8683
1975-08-13 02:23:01,1,5.15278,-1.32917,1.22778,0.446478,1,1,117202.0,107800.0,1630,0.72692233,-5.5016775,12.527924,165.66267,2.49784,476.884,-21.6405,3.46953,43.9872,42.1859
1975-08-13 02:23:42,1,5.36757,-1.14189,0.891892,0.451984,1,1,50967.5,104217.0,1630,0.72692233,-5.5016775,12.522064,165.66267,2.38196,480.095,-12.4027,3.73789,29.0071,41.4789
1975-08-13 02:24:22,1,5.64384,-0.89863,0.960274,0.312839,1,1,130137.0,92930.4,1630,0.7269156,-5.50175,12.516418,165.66289,2.56309,484.669,-19.0841,7.62556,46.3509,39.1685
1975-08-13 02:25:03,1,5.73784,-0.574324,1.08649,0.267161,1,1,56827.4,101181.0,1630,0.72690892,-5.5018225,12.510773,165.66312,2.49466,478.683,-23.3869,0.856595,30.6293,40.8702
1975-08-13 02:25:43,1,5.5875,-0.830556,0.827778,0.453321,1,1,122473.0,84890.2,1630,0.72690892,-5.5018225,12.504913,165.66312,2.22454,485.061,-21.8175,6.54693,44.9653,37.4358
1975-08-13 02:26:24,1,5.48378,-1.13378,0.827027,0.51112,1,1,51876.8,103367.0,1630,0.72690219,-5.5018959,12.497314,165.66333,2.16258,479.731,-17.2701,10.1304,29.2647,41.3095
1975-08-13 02:27:04,1,5.04658,-2.02329,0.438356,0.61849,1,1,108178.0,105525.0,1630,0.72689551,-5.5019684,12.491699,165.66356,2.53716,486.253,-10.3818,4.42506,42.2598,41.7383
1975-08-13 02:27:45,1,5.19595,-1.82973,0.42027,0.638865,1,1,54386.9,80901.5,1630,0.72689551,-5.5019684,12.48584,165.66356,2.14894,476.999,-10.6237,4.61593,29.9644,36.5457
1975-08-13 02:28:25,1,5.38611,-1.35556,0.766667,0.789549,1,1,95757.3,96093.2,1630,0.72688878,-5.5020409,12.480194,165.66377,2.32209,479.476,-7.43416,11.9908,39.7598,39.8294
1975-08-13 02:29:06,1,5.07162,-1.62432,0.135135,0.511427,1,1,65251.4,81298.3,1630,0.7268821,-5.5021133,12.474548,165.664,2.14702,475.562,-18.5297,12.0749,32.8211,36.6352
1975-08-13 02:29:46,1,4.82466,-1.00822,-0.338356,0.732637,1,1,124657.0,118278.0,1630,0.7268821,-5.5021133,12.466736,165.664,2.7502,479.388,-13.5442,12.0617,45.3644,44.1886
1975-08-13 02:30:27,1,5.05541,-0.452703,-0.135135,0.849292,1,1,69189.6,90318.7,1630,0.72687542,-5.5021868,12.461121,165.66423,2.2615,478.725,-25.2879,17.4565,33.797,38.6142
1975-08-13 02:31:07,1,5.20694,-0.523611,0.244444,0.616826,1,1,77197.3,99463.2,1630,0.72686869,-5.5022593,12.455475,165.66444,2.40216,470.466,-24.3435,12.3233,35.6992,40.5218
1975-08-13 02:31:48,1,5.54143,-0.767143,1.21714,0.461731,1,1,62079.5,88750.5,1630,0.72686869,-5.5022593,12.449615,165.66444,2.36095,475.611,-24.9406,4.06917,32.0134,38.2775
1975-08-13 02:32:28,1,5.53425,-1.0274,1.31918,0.524244,1,1,70966.4,91316.2,1630,0.72686201,-5.5023317,12.44397,165.66467,2.18394,470.206,-11.7488,5.15042,34.2282,38.8268